Location: Helstorf
(52.5868°N, 9.5862°E)
Time: 22:37:43
(UTC+00:00)

NOSS 3-3 (C) - Pass Details

Date: 15 May 2026
Orbit: 697 x 1516 km, 63.4° (Epoch: 11 January)

Event Time Altitude Azimuth Distance (km) Brightness Sun altitude
Rises 20:30:02 0° 224° (SW) 3,197 6.7 -9.7°
Reaches altitude 10° 20:32:14 10° 225° (SW) 2,340 6.0 -9.9°
Maximum altitude 20:37:36 90° 313° (NW) 890 3.8 -10.4°
Drops below altitude 10° 20:44:10 10° 47° (NE) 2,836 6.5 -11.0°
Sets 20:47:04 0° 48° (NE) 3,926 7.2 -11.3°
